|
NORAD ID: 1739 Int'l Code: 1965-093B
Perigee: 666.5 km
Apogee: 800.0 km
Inclination: 59.7 °
Period: 99.3 minutes
Semi major axis: 7104 km
Launch date: November 19, 1965
Source: United States (US)
Note: This is a ROCKET BODY
Two Line Element Set (TLE):
1 01739U 65093B 13137.59216016 .00000397 00000-0 13629-3 0 9733
2 01739 059.7031 175.8526 0093995 125.1577 235.8316 14.49859671497208
Source:
NASA's NSSDC Master Catalog entry for SCOUT X-4 R/B
|